This demonstration page uses our WeatherBlox Daily Observations layout. Learn more.

Left ArrowRight Arrow

30.00354, -91.81873

Hourly Observations for September 5, 2022

Temp ( °F °C ) Dew Point ( °F °C ) Humidity (%) Winds ( mph kmh ) Pressure ( in mb ) Visibility ( mi km ) Precip ( " mm )
12:53 am 00:53 Clear with Mist and Fog 73 22.8 71 21.7 94 94 Calm 29.96 1014 6 10 0.00 0.00
1:53 am 01:53 Mostly Clear 74 23.3 72 22.2 94 94 Calm 29.94 1014 8 13 0.00 0.00
2:53 am 02:53 Clear 74 23.3 72 22.2 94 94 SSE 3 6 29.93 1014 8 13 0.01 0.13
3:53 am 03:53 Clear 74 23.3 72 22.2 94 94 Calm 29.92 1013 10 16 0.00 0.00
4:46 am 04:46 Mostly Cloudy 74 23.3 72 22.2 94 94 Calm 29.94 1014 10 16 0.01 0.13
4:53 am 04:53 Mostly Cloudy with Light Rain 74 23.3 72 22.2 94 94 Calm 29.94 1014 10 16 0.01 0.13
5:29 am 05:29 Mostly Cloudy with Light Rain 75 23.9 73 22.8 94 94 Calm 29.94 1014 10 16 0.01 0.13
5:53 am 05:53 Mostly Cloudy 74 23.3 72 22.2 94 94 Calm 29.95 1014 10 16 0.01 0.13
6:53 am 06:53 Mostly Sunny 75 23.9 73 22.8 94 94 Calm 29.96 1014 10 16 0.00 0.00
7:53 am 07:53 Mostly Cloudy 75 23.9 73 22.8 94 94 Calm 29.97 1015 10 16 0.00 0.00
8:53 am 08:53 Mostly Cloudy 77 25 74 23.3 90 90 Calm 29.99 1016 10 16 0.01 0.13
9:53 am 09:53 Mostly Sunny 79 26.1 74 23.3 85 85 Calm 30.00 1016 10 16 0.00 0.00
10:53 am 10:53 Sunny 80 26.7 74 23.3 82 82 SW 3 6 30.01 1016 10 16 0.01 0.13
11:53 am 11:53 Partly Cloudy 81 27.2 74 23.3 79 79 SSW 5 7 30.01 1016 10 16 0.01 0.13
12:53 pm 12:53 Sunny 82 27.8 74 23.3 77 77 S 6 9 30.01 1016 10 16 0.01 0.13
1:53 pm 13:53 Sunny 83 28.3 72 22.2 70 70 S 6 9 30.00 1016 10 16 0.00 0.00
2:53 pm 14:53 Mostly Sunny 83 28.3 71 21.7 67 67 SSW 5 7 29.98 1015 10 16 0.00 0.00
3:53 pm 15:53 Sunny 82 27.8 72 22.2 72 72 S 5 7 29.98 1015 10 16 0.01 0.13
4:53 pm 16:53 Sunny 82 27.8 72 22.2 72 72 S 6 9 29.97 1015 10 16 0.00 0.00
5:53 pm 17:53 Sunny 81 27.2 73 22.8 77 77 SSW 3 6 29.97 1015 10 16 0.00 0.00
6:53 pm 18:53 Sunny 80 26.7 75 23.9 85 85 S 5 7 29.98 1015 10 16 0.00 0.00
7:53 pm 19:53 Clear 78 25.6 75 23.9 90 90 Calm 29.98 1015 10 16 0.00 0.00
8:53 pm 20:53 Clear with Light Rain 77 25 74 23.3 90 90 SE 3 6 30.01 1016 10 16 0.01 0.13
9:53 pm 21:53 Clear with Light Rain 76 24.4 74 23.3 94 94 W 3 6 30.02 1017 10 16 0.01 0.13
10:53 pm 22:53 Clear 76 24.4 73 22.8 91 91 SE 5 7 30.01 1016 10 16 0.01 0.13
11:53 pm 23:53 Clear 76 24.4 73 22.8 91 91 ESE 3 6 30.01 1016 10 16 0.01 0.13

Powered by AerisWeather